User: anonymous   Login
Location: Fort Wayne
(41.1310°N, 85.1290°W)
Time: 23:03:05
(UTC-05:00)
Language:

Cosmos 1953 - Orbit

View from above orbital plane
View from above orbital plane
View from above satellite
View from above satellite

Ground track
Ground track

The orbit data is extracted from the following two-line orbital elements,

1 19210U 88050A   17328.42477548  .00001057  00000-0  71496-4 0  9990
2 19210  82.5185 238.0042 0015125  74.2058 286.0835 15.05435623601949
Epoch (UTC): 24 November 2017 10:11:40
Eccentricity: 0.0015125
inclination: 82.5185°
perigee height: 539 km
apogee height: 560 km
right ascension of ascending node: 238.0042°
argument of perigee: 74.2058°
revolutions per day: 15.05435623
mean anomaly at epoch: 286.0835°
orbit number at epoch: 60194

The dashed part of the orbit path shows where the satellite is in the earth's shadow,  

DLR